Regional Weather Roundup
Issued by NWS Grand Forks, ND

Home | Current Version | Previous Version | Text Only | Print | Product List | Glossary On
Versions: 1 2 3 4 5 6 7 8 9 10 11 12 13 14 15 16 17 18 19 20 21 22 23 24 25 26 27 28 29 30 31 32 33 34 35 36 37 38 39 40 41 42 43 44 45 46 47 48 49 50
000
ASUS43 KFGF 280731
RWRFGF
PRAIRIE TO PINES  WEATHER ROUNDUP
NATIONAL WEATHER SERVICE EASTERN NORTH DAKOTA/GRAND FORKS ND
100 AM CST TUE FEB 28 2017

 **SATELLITE DATA USED TO AUGMENT SKY COVER AT AUTOMATED STATIONS**
 *****  WEATHER ACROSS EASTERN NORTH DAKOTA  *****

CITY           SKY/WX    TMP DP  RH WIND       PRES   REMARKS
GRAND FORKS    CLOUDY    17   8  67 N12       29.93R WCI   4
GRAND FRKS AFB CLOUDY    14   9  79 N15       29.94R WCI  -1
DEVILS LAKE    FLURRIES  11   7  84 NE7       29.90  WCI   0
FARGO          FAIR      22  19  89 N16       29.86F WCI   8
WAHPETON ARPT  CLOUDY    27  19  74 N15       29.82R WCI  15
$$

 ***** WEATHER ACROSS CENTRAL AND WESTERN NORTH DAKOTA  *****

CITY           SKY/WX    TMP DP  RH WIND       PRES   REMARKS
BISMARCK       CLOUDY    20  16  84 NE7       29.86R WCI  11
MINOT          CLOUDY     4   0  83 W3        29.88R
JAMESTOWN      FAIR      16  13  88 N13       29.85R WCI   2
MINOT AFB      CLOUDY     1  -2  85 CALM      29.88S
GARRISON         N/A      0  -3  87 NE3       29.86R
WILLISTON      FAIR       3   0  87 N3        29.85R
DICKINSON      CLOUDY    14  11  87 E7        29.76S WCI   4
HETTINGER      CLOUDY    19  16  88 E10       29.77S WCI   7
$$

 *****  OTHER AIRPORT OBSERVATIONS IN OUR AREA  *****

CITY           SKY/WX    TMP DP  RH WIND       PRES   REMARKS
WALHALLA       NOT AVBL
GRAFTON AIRPOR CLOUDY    12   7  79 N10       29.98R WCI  -1
VALLEY CITY AR FAIR      16  16 100 N9        29.88S WCI   4
CANDO          NOT AVBL
CAVALIER APRT    N/A      7   5  92 N6        29.98R WCI  -3
GWINNER        FAIR      25  21  86 N16       29.83S WCI  12
SHEYENNE NWR     N/A     21  17  83 N12       29.95S WCI   9
ROLLA          PTSUNNY    0  -2  92 N7        29.90R WCI -13
 ***** THE ABOVE OBSERVATIONS ARE NON NWS ARE NOT QUALITY
       CONTROLLED AND MAY MIS-REPORT RAIN FOR SNOW...
$$

  *****  WEATHER ACROSS NORTHERN MINNESOTA  *****

CITY           SKY/WX    TMP DP  RH WIND       PRES   REMARKS
FLAG ISLAND    CLOUDY    12   9  85 NE9       29.94R WCI   0
WARROAD        LGT SNOW  14  10  85 NE7       29.94S WCI   4
ROSEAU         CLOUDY    16  10  79 NE9       29.93S WCI   4
HALLOCK        FAIR      10   5  79 N7        29.96S WCI   0
THF RVR FALLS  MOCLDY    19  16  88 NE12      29.89F WCI   7
BAUDETTE       CLOUDY    19  15  84 N7        29.90R WCI  10
WASKISH        CLOUDY    23  16  74 NE7       29.87F WCI  15
CROOKSTON      CLOUDY    19  18  93 N9        29.93R WCI   9
STEPHEN NDAWN    N/A     10   9  92 N9          N/A  WCI  -2
GREENBUSH NDAW   N/A      7   3  85 N3          N/A
$$
  *****  WEATHER ACROSS CENTRAL AND WEST MINNESOTA  *****

CITY           SKY/WX    TMP DP  RH WIND       PRES   REMARKS
FOSSTON        CLOUDY    21  16  79 NE10      29.85F WCI  10
BEMIDJI        CLOUDY    25  14  63 N7        29.82F WCI  17
PARK RAPIDS    CLOUDY    30  19  63 N8        29.78S WCI  22
ELBOW LAKE     CLOUDY    30  29  96 NW7       29.78S WCI  23
WADENA         CLOUDY    30  27  86 CALM      29.77F
DETROIT LAKES  FAIR      28  23  80 N5        29.81R WCI  23
MOORHEAD       FAIR      23  19  86 N14       29.86R WCI  11
FERGUS FALLS   FAIR      28  25  86 N9        29.84R WCI  20
MORRIS MN      MOCLDY    30  30 100 CALM      29.77R
STAPLES        CLOUDY    32  27  80 CALM      29.77F
$$
  *****  WEATHER ELSEWHERE ACROSS MINNESOTA  *****

CITY           SKY/WX    TMP DP  RH WIND       PRES   REMARKS
DULUTH         CLOUDY    25  22  88 E3        29.83F
INTRNTL FALLS  LGT SNOW  22  16  78 N8        29.90R WCI  12
ELY            FLURRIES  27  21  80 CALM      29.83F
CLOQUET        CLOUDY    27  25  93 E3        29.82F
WHEATON        CLOUDY    28  25  86 NW14      29.82R WCI  17
BRAINERD       CLOUDY    34  25  69 SE7       29.79F
HIBBING        CLOUDY    28  24  85 SE5       29.81F WCI  23
ALEXANDRIA     CLOUDY    32  28  85 N6        29.76F
SAINT CLOUD    CLOUDY    34  27  75 E7        29.76F
MINNEAPOLIS    CLOUDY    38  29  70 SE5       29.79F
$$

  *****  WEATHER ACROSS SOUTH DAKOTA  *****

CITY           SKY/WX    TMP DP  RH WIND       PRES   REMARKS
SIOUX FALLS    FAIR      33  30  88 NE7       29.69F
BROOKINGS      MOCLDY    33  29  85 NE3       29.72R
WATERTOWN      MOCLDY    30  26  85 NE7       29.74R WCI  23
HURON          MOCLDY    31  29  92 NE3       29.73R
SISSETON         N/A     27  26  96 N15       29.80R WCI  15
ABERDEEN       LGT SNOW  25  21  85 N13       29.81R FOG     WCI  14
MITCHELL       MOCLDY    33  30  88 NW5       29.72R
PIERRE         LGT SNOW  32  31  96 NW5       29.74R FOG
MOBRIDGE       CLOUDY    27  22  81 NE12      29.76R WCI  17
RAPID CITY     FAIR      22  19  89 N8        29.67F WCI  12
$$

  *****  SOME WEATHER IN NEARBY STATES *****

CITY           SKY/WX    TMP DP  RH WIND       PRES   REMARKS
GLASGOW MT     FAIR      13   9  84 E9        29.74F WCI   1
GREAT FALLS MT FAIR      22  15  75 SW13      29.57S WCI  10
CHEYENNE WY    FAIR      25  12  58 NW21G30   29.68R WCI  11
SCOTTSBLUFF NE MOCLDY    28  24  85 NW7       29.69S WCI  21
OMAHA NE       MOCLDY    36  29  75 CALM      29.65F
DES MOINES IA  MOCLDY    46  32  58 E7        29.74F
DAVENPORT IA   MOCLDY    49  42  77 SE7       29.85F
CHICAGO IL     CLOUDY    48  41  76 E7        29.98F
EAU CLAIRE WI  MOCLDY    33  27  78 E3        29.84F
LA CROSSE WI   CLOUDY    43  34  70 S9        29.86F
$$

  *****  SOME NATIONAL WEATHER *****

CITY           SKY/WX    TMP DP  RH WIND       PRES   REMARKS
LA GUARDIA NY  CLOUDY    50  31  48 S3        30.37F
RALEIGH NC     CLOUDY    58  47  66 SE5       30.34S
ATLANTA GA     MOCLDY    52  49  89 E6        30.27S
NEW ORLEANS LA CLOUDY    72  70  93 SE16G23   30.11F
OKLAHOMA CITY  MOCLDY    61  59  93 S14       29.81S FOG
ALBUQUERQUE NM MOCLDY    46  32  58 SE7       29.85F
SALT LAKE CITY FAIR      25  19  78 SE7       29.82F WCI  17
LOS ANGELES CA MOCLDY    54  46  74 NW3       29.87S
BOISE ID       LGT SNOW  32  23  69 S12G20    29.78R WCI  23
SEATTLE WA     CLOUDY    36  32  85 SE3       29.77R
$$

*** WEATHER ACROSS MANITOBA...SASKATCHEWAN AND ONTARIO ***
                ***ONTARIO***

CITY           SKY/WX    TMP DP  RH WIND       PRES   REMARKS
GERALDTON      CLOUDY    16  10  79 CALM      29.93F
THUNDER BAY    CLOUDY    23  21  93 SW3       29.95F
SIOUX LOOKOUT  FLURRIES  12   7  79 N7        29.94R WCI   2
TORONTO        MOCLDY    37  28  70 SE6       30.25S
BIG TROUT LK   CLEAR    -11 -15  84 NW5       30.00R WCI -23
PICKLE LAKE    NOT AVBL
DRYDEN         LGT SNOW  12   9  85 NE12      29.92S WCI  -2
KENORA         PTCLDY     9   3  78 N8        29.93S WCI  -4
$$
                *** MANITOBA***

CITY           SKY/WX    TMP DP  RH WIND       PRES   REMARKS
BRANDON        CLEAR     -6 -13  71 W2        29.95S
DAUPHIN        CLEAR     -4  -8  84 W6        29.97S WCI -16
ISLAND LAKE    CRYSTALS -17 -22  76 SE2       30.02R
PILOT MOUND      N/A      3   0  85 NE3         N/A
THE PAS        CLEAR     -4 -11  71 SE7       29.91R WCI -18
THOMPSON       CRYSTALS -33 -40  68 CALM      29.99R
WINNIPEG       CLEAR      3  -2  78 NE6       30.00F WCI  -8
LYNN LAKE      CLEAR    -31 -36  75 SW5       29.89S WCI -46
CHURCHILL      CRYSTALS -27 -33  75 NW13      29.99R DRFTSNOWWCI -53
GILLAM         CLEAR    -27 -35  68 SW5       30.01R WCI -42
$$
                ***SASKATCHEWAN***

CITY           SKY/WX    TMP DP  RH WIND       PRES   REMARKS
ESTEVAN        CLEAR      0  -4  85 SE8       29.86S WCI -15
KINDERSLEY     CLOUDY    12   7  79 E8        29.70F WCI   1
LLOYDMINSTER   CLEAR      5   1  85 SW7       29.71S WCI  -7
PRINCE ALBERT  PTCLDY    -2  -6  84 E3        29.82R
REGINA         PTCLDY     3   0  85 SE10      29.83F WCI -12
YORKTON        CLEAR     -2  -6  84 S6        29.89S WCI -14
N. BATTLEFORD  CLEAR      1  -4  78 SE5       29.78S WCI  -8
LA RONGE       CLEAR    -20 -26  76 CALM      29.86S
SASKATOON      PTCLDY     7   0  72 S5        29.81S WCI  -2
SWIFT CURRENT  CLEAR      9   7  92 S13       29.67F WCI  -7
$$
NOTE: THESE ARE AUTOMATED STATIONS WITH LIMITED QUALITY CONTROL
      "FAIR" INDICATES FEW OR NO CLOUDS BELOW 12,000 FEET WITH NO
      SIGNIFICANT WEATHER AND/OR OBSTRUCTIONS TO VISIBILITY.
      SKY/WX - SKY CONDITION AND SIGNIFICANT WEATHER.
      TMP - AIR TEMPERATURE.    DP   - DEWPOINT TEMPERATURE.
      RH  - RELATIVE HUMIDITY.  PRES - PRESSURE.
      HX  - HEAT INDEX.         WCI  - WIND CHILL INDEX.
$




USA.gov is the U.S. government's official web portal to all federal, state and local government web resources and services.